Vertical_Velocity
-0 -0 0 0 0 -0 -0 -1 -1 -1 -1 -1 -2 -2 -2 -2 -3 -3 -3 -4 -5 -6 -6 -5 -5 -5 -4 -4 -3 -2 -2 -2 -2 -2 -2 -3 -2 -2 -2 -3 -4 -5 -6 -5 -2 -2 -3 -3 -2 -2 -2 -1 -1 -2 -3 -4 -1 3 5 3 2 0 0 3 10 14 17 16 6
-0 0 0 0 0 -0 -1 -1 -1 -1 -1 -1 -1 -2 -2 -2 -2 -3 -3 -4 -4 -5 -5 -6 -5 -4 -4 -4 -3 -3 -2 -2 -2 -2 -2 -3 -2 -2 -2 -2 -3 -5 -6 -5 -3 -3 -4 -4 -2 -2 -2 -2 -1 -2 -2 -3 -2 -2 -2 -2 -3 -2 1 6 12 17 19 15 4
0 0 0 0 0 -0 -1 -1 -1 -1 -1 -1 -1 -1 -2 -2 -2 -3 -3 -3 -4 -5 -5 -5 -5 -4 -4 -4 -4 -3 -3 -2 -2 -2 -3 -4 -3 -2 -2 -2 -2 -4 -5 -5 -5 -5 -6 -6 -4 -2 -2 -2 -2 -3 -3 -3 -2 -3 -4 -5 -5 -3 1 9 14 20 22 19 9
0 0 0 0 0 -0 -1 -1 -1 -1 -1 -1 -1 -1 -1 -1 -2 -2 -3 -3 -4 -4 -5 -5 -5 -4 -4 -4 -4 -4 -3 -2 -2 -2 -2 -3 -3 -3 -2 -2 -2 -3 -4 -5 -5 -6 -7 -8 -7 -5 -2 -1 -1 -2 -2 -1 0 -0 -1 -3 -2 -1 -0 1 7 16 23 21 16
0 0 0 0 -0 -0 -1 -1 -1 -1 -1 -0 -1 -1 -1 -1 -2 -2 -3 -4 -3 -3 -4 -5 -5 -4 -4 -4 -4 -3 -3 -3 -2 -2 -2 -3 -3 -2 -2 -2 -2 -2 -3 -4 -4 -5 -5 -6 -7 -6 -4 -1 -1 -1 -0 1 4 4 3 0 -0 1 2 2 4 6 8 9 12
0 0 0 0 -0 -1 -1 -1 -1 -1 -1 -0 -0 -0 -1 -1 -1 -2 -3 -3 -3 -3 -4 -4 -4 -4 -4 -3 -3 -3 -3 -2 -2 -2 -2 -2 -2 -2 -2 -2 -2 -2 -2 -3 -3 -3 -2 -3 -4 -6 -5 -3 -1 0 1 2 4 6 7 8 3 1 -1 -2 -2 -3 -4 -3 2
0 0 0 -0 -0 -1 -1 -1 -1 -1 -1 -0 -0 -0 -0 -0 -1 -2 -2 -3 -3 -3 -3 -3 -4 -4 -4 -3 -3 -3 -3 -2 -2 -2 -1 -1 -2 -2 -2 -2 -2 -2 -2 -2 -2 -2 -1 -1 -1 -2 -3 -4 -2 -2 -1 1 2 3 5 9 9 6 3 1 1 -1 -2 -3 -3
0 0 0 -0 -0 -1 -1 -1 -1 -1 -1 -0 -0 0 -0 -0 -1 -2 -2 -3 -3 -3 -2 -2 -3 -3 -4 -4 -3 -3 -2 -2 -2 -1 -1 -1 -1 -1 -1 -2 -2 -2 -2 -2 -2 -2 -2 -1 0 1 1 -0 -2 -2 -2 -1 1 1 1 1 3 4 5 5 2 0 -0 -1 -3
0 0 0 -0 -0 -1 -1 -1 -1 -1 -1 -0 -0 -0 -0 -1 -1 -2 -2 -3 -3 -2 -2 -2 -2 -3 -4 -4 -4 -3 -2 -2 -1 -1 -1 -1 -1 -1 -1 -1 -1 -1 -2 -2 -2 -2 -2 -2 -1 0 1 1 1 1 0 1 2 3 3 2 -0 -1 0 3 2 2 1 2 0
0 0 0 -0 -0 -1 -1 -1 -1 -1 -1 -1 -0 -0 -0 -1 -1 -1 -1 -2 -2 -2 -2 -2 -2 -3 -4 -4 -4 -3 -3 -2 -2 -1 -1 -1 -1 -1 -0 -0 -1 -1 -1 -2 -2 -2 -2 -2 -2 -1 -0 0 1 1 2 3 3 3 3 3 1 -1 -3 -3 -1 0 1 2 2
0 0 0 -0 -0 -1 -1 -1 -1 -1 -1 -1 -1 -1 -1 -1 -1 -1 -1 -1 -2 -2 -2 -1 -2 -2 -3 -4 -4 -3 -3 -3 -2 -2 -1 -1 -1 -1 -1 -1 -1 -1 -1 -1 -1 -2 -2 -2 -1 -1 -1 -0 0 1 1 3 3 3 3 3 2 0 -2 -3 -4 -3 -3 -2 -1
1 0 0 -0 -0 -1 -1 -1 -1 -1 -1 -1 -1 -1 -1 -1 -1 -1 -1 -1 -2 -1 -1 -1 -1 -2 -3 -3 -3 -3 -3 -3 -3 -2 -1 -1 -0 -0 -0 -1 -1 -1 -1 -1 -1 -1 -1 -1 -1 -1 -0 0 1 1 1 1 3 3 3 3 2 2 0 -1 -3 -4 -5 -6 -6
0 0 0 -0 -0 -1 -0 -0 -0 -1 -1 -1 -1 -1 -1 -1 -1 -1 -1 -1 -1 -1 -1 -1 -1 -2 -2 -3 -3 -3 -3 -3 -3 -2 -2 -1 -1 -0 -0 0 -0 -0 -1 -1 -1 -1 -1 -1 -1 -1 0 1 1 1 1 1 2 2 2 2 2 2 2 1 -0 -2 -3 -5 -6
0 0 -0 -0 -0 -0 -0 -0 -0 -0 -0 -1 -1 -1 -1 -1 -1 -1 -1 -1 -1 -1 -1 -1 -1 -2 -2 -3 -4 -4 -3 -3 -3 -3 -2 -2 -1 -1 -0 0 0 0 -0 -1 -1 -1 -1 -1 -1 -1 -1 0 1 1 1 1 1 2 2 2 2 2 2 2 2 1 0 -1 -3
0 0 -0 -0 -0 -0 -0 0 0 -0 -0 -0 -1 -1 -0 -0 -0 -0 -1 -1 -1 -1 -1 -1 -1 -1 -2 -3 -4 -4 -4 -4 -3 -3 -3 -2 -2 -1 -0 0 1 1 0 -0 -1 -1 -1 -1 -1 -2 -2 -1 0 1 1 1 1 1 2 2 2 2 2 2 2 3 3 2 1
0 0 -0 -0 -0 -0 0 0 0 0 0 -0 -0 -0 -0 -0 0 0 -0 -0 -1 -1 -1 -1 -1 -1 -2 -3 -4 -4 -4 -4 -3 -3 -3 -2 -2 -1 -1 0 1 1 1 0 0 -0 -0 -0 -1 -1 -2 -2 -1 -0 1 1 1 1 1 2 2 2 2 2 2 2 3 3 3
0 0 0 -0 -0 0 0 0 0 0 0 0 -0 -0 0 0 1 1 1 0 -0 -1 -1 -1 -1 -1 -2 -3 -3 -4 -4 -4 -4 -3 -3 -3 -2 -2 -1 -1 0 1 1 1 0 0 0 0 -0 -1 -1 -2 -1 -1 -0 0 1 1 1 2 2 3 3 2 2 2 2 2 3
0 0 0 0 0 0 0 0 0 0 0 0 0 0 0 1 1 1 1 1 1 0 -0 -0 -0 -1 -1 -2 -2 -3 -4 -4 -4 -3 -3 -3 -3 -2 -2 -1 -1 -0 0 0 0 0 0 1 1 0 -0 -1 -1 -1 -1 -0 0 1 1 1 2 2 2 2 2 2 1 1 1
0 1 1 0 0 0 0 0 0 0 0 0 0 0 0 1 1 1 1 1 1 1 1 1 0 -0 -1 -1 -2 -2 -3 -3 -3 -3 -3 -3 -3 -3 -3 -2 -2 -1 -1 -0 -0 0 0 1 1 1 1 0 -0 -0 -1 -0 -0 -0 -0 0 1 1 1 2 2 1 1 0 0
1 1 1 1 1 0 0 0 -0 -0 0 0 0 0 0 1 1 1 1 1 1 1 1 1 1 0 -0 -1 -1 -2 -2 -2 -3 -3 -4 -4 -4 -4 -3 -3 -3 -3 -2 -2 -1 -1 -0 0 1 1 1 1 1 0 -0 -0 -0 -1 -1 -1 -1 -1 -0 0 1 1 1 1 0
1 1 1 1 1 1 0 0 0 -0 -0 0 0 0 0 0 0 1 1 1 1 1 1 1 1 1 0 -0 -1 -1 -1 -2 -2 -3 -3 -3 -3 -3 -3 -3 -4 -4 -4 -3 -2 -1 -1 -0 0 1 1 1 1 1 1 0 0 -0 -0 -1 -1 -2 -1 -1 -0 0 1 1 1
1 1 1 1 1 1 1 0 0 0 0 0 0 0 0 -0 -0 0 0 0 0 0 1 1 1 1 0 0 -0 -0 -1 -1 -2 -2 -2 -3 -3 -3 -3 -3 -4 -4 -4 -3 -3 -2 -1 -1 -0 0 0 1 1 1 1 1 0 0 0 -0 -1 -1 -1 -1 -1 -1 -1 -0 0
1 1 1 1 1 1 1 1 0 0 0 0 0 0 -0 -0 -0 -0 -0 -1 -1 -0 -0 0 0 0 0 0 -0 -0 -1 -1 -1 -2 -2 -2 -2 -2 -3 -3 -3 -3 -3 -2 -2 -2 -1 -1 -1 -1 -0 0 0 1 1 1 1 1 0 0 0 -0 -0 -1 -1 -1 -1 -1 -1
0 1 1 1 1 1 1 1 1 0 0 0 0 0 -0 -0 -0 -1 -1 -1 -1 -1 -1 -0 -0 -0 -0 -0 -0 -1 -1 -1 -1 -1 -1 -1 -1 -1 -2 -2 -2 -2 -2 -2 -1 -1 -1 -2 -2 -2 -1 -1 -1 -0 0 1 1 1 1 0 0 0 -0 -0 -0 -0 -1 -1 -1
0 0 1 1 1 1 1 1 1 1 0 0 0 0 -0 -0 -0 -1 -1 -1 -1 -1 -1 -1 -0 -0 -0 -0 -1 -1 -1 -1 -1 -1 -1 -1 -1 -1 -1 -1 -1 -1 -1 -1 -2 -2 -2 -2 -2 -2 -2 -2 -2 -2 -1 -1 0 0 0 0 0 -0 -0 -0 -0 0 0 -0 -0
0 1 1 1 1 1 1 1 1 1 0 0 0 0 -0 -0 -1 -1 -1 -1 -1 -1 -1 -1 -0 -0 -0 -0 -1 -1 -1 -2 -2 -2 -2 -1 -1 -1 -0 -0 -0 -1 -1 -1 -2 -2 -2 -3 -3 -3 -3 -3 -3 -3 -2 -2 -1 -1 -0 0 -0 -0 -1 -1 -1 -0 -0 -0 -0
1 1 1 1 1 1 1 1 1 1 1 0 0 0 -0 -0 -1 -1 -1 -1 -1 -1 -1 -1 -0 -0 -0 -0 -0 -1 -1 -1 -2 -2 -2 -2 -1 -1 -1 -0 -0 -0 -1 -1 -2 -2 -2 -2 -3 -3 -3 -3 -3 -3 -3 -3 -2 -2 -1 -1 -0 -0 -0 -1 -1 -1 -1 -1 -1
1 1 1 1 1 1 1 1 1 1 0 0 0 0 -0 -0 -1 -1 -1 -1 -1 -1 -1 -1 -1 -0 -0 0 0 0 -0 -1 -1 -2 -2 -3 -2 -2 -1 -1 -1 -1 -1 -1 -1 -1 -2 -2 -2 -2 -2 -3 -3 -3 -3 -3 -3 -2 -2 -1 -0 -0 -0 -1 -1 -1 -1 -1 -1
1 1 1 1 1 1 1 1 1 0 0 0 0 -0 -0 -0 -0 -1 -1 -1 -1 -1 -1 -1 -1 -0 -0 0 0 0 0 0 -0 -1 -2 -2 -3 -3 -3 -2 -2 -1 -1 -1 -1 -1 -1 -1 -1 -1 -1 -2 -2 -2 -3 -3 -3 -3 -2 -2 -1 -1 -1 -1 -1 -1 -1 -1 -1
1 1 1 1 1 1 1 0 0 0 0 0 0 -0 -0 -1 -1 -0 -0 -1 -1 -1 -1 -1 -0 -0 -0 0 0 0 0 0 0 0 -0 -1 -2 -3 -3 -4 -3 -3 -2 -1 -1 -1 -1 -0 -0 -0 -0 -0 -1 -1 -2 -2 -2 -2 -2 -2 -2 -2 -1 -1 -1 -1 -1 -1 -1
1 1 1 1 1 1 0 0 0 0 0 0 -0 -0 -0 -1 -1 -0 -0 -0 -1 -1 -1 -1 -0 -0 -0 0 0 0 1 1 1 0 0 0 -1 -1 -2 -3 -4 -4 -3 -3 -2 -1 -1 -1 -0 0 0 0 0 0 -0 -1 -1 -2 -2 -2 -2 -2 -2 -2 -1 -1 -1 -1 -1
0 1 1 1 0 0 0 0 -0 -0 -0 -0 -0 -0 -0 -1 -1 -1 -0 -0 -0 -1 -1 -1 -0 -0 -0 -0 0 0 1 1 1 1 0 0 0 -0 -1 -2 -3 -4 -4 -4 -3 -3 -2 -2 -1 -1 -0 0 1 1 0 0 -0 -1 -1 -1 -2 -2 -2 -2 -2 -2 -2 -1 -1
0 0 0 0 0 0 0 -0 -0 -0 -1 -1 -1 -0 -0 -1 -1 -1 -0 -0 -0 -0 -0 -1 -0 -0 -0 -0 -0 0 0 1 1 1 1 0 0 0 -0 -1 -1 -2 -3 -4 -4 -4 -4 -3 -3 -2 -2 -1 -0 0 0 0 0 -0 -1 -1 -1 -1 -1 -2 -2 -2 -2 -2 -2
0 0 0 0 0 0 0 -0 -0 -1 -1 -1 -1 -1 -0 -0 -1 -1 -0 -0 -0 -0 -0 -0 -0 -0 -0 -0 0 0 -0 0 0 1 1 0 0 0 0 0 -0 -1 -2 -3 -4 -4 -4 -4 -4 -4 -3 -3 -2 -2 -1 -1 -0 -0 -1 -1 -1 -1 -1 -1 -1 -2 -2 -3 -3
0 0 0 0 0 0 0 -0 -0 -0 -0 -1 -1 -1 -1 -0 -0 -0 -0 -0 -0 -0 -0 -0 -0 -0 -0 -0 0 0 0 -0 0 0 0 0 0 0 0 0 -0 -0 -1 -1 -2 -3 -4 -4 -5 -5 -5 -4 -4 -3 -3 -2 -1 -1 -1 -1 -1 -1 -1 -1 -1 -1 -1 -2 -2
0 0 0 0 0 0 0 -0 -0 -0 -0 -0 -1 -1 -1 -1 -0 -0 -0 -0 -0 -0 0 0 0 -0 -0 -0 -0 0 0 0 -0 0 0 0 0 0 -0 -0 -0 -0 -0 -0 -1 -2 -2 -3 -4 -4 -5 -5 -5 -5 -4 -3 -3 -2 -2 -1 -1 -1 -1 -2 -2 -2 -1 -1 -2
0 0 0 0 0 0 0 0 0 -0 -0 -0 -0 -0 -1 -1 -1 -0 -0 -0 -0 -0 -0 -0 0 0 -0 -0 -0 0 0 0 0 0 0 0 0 0 -0 -0 -0 -0 -0 -0 -0 -1 -1 -1 -2 -3 -4 -4 -5 -5 -5 -4 -4 -3 -3 -2 -2 -1 -1 -1 -2 -2 -2 -2 -2
0 0 0 0 0 0 0 0 0 0 -0 -0 -0 -0 -1 -1 -1 -1 -1 -0 -0 -0 -1 -0 -0 -0 -0 -0 -0 -0 0 0 0 0 0 -0 0 0 0 -0 -0 -0 -0 -0 -0 -0 -0 -0 -1 -1 -2 -2 -3 -4 -5 -5 -5 -4 -4 -4 -3 -2 -2 -1 -1 -1 -1 -1 -1
0 0 0 0 0 0 0 0 0 0 0 0 -0 -0 -1 -1 -1 -1 -1 -0 -0 -0 -1 -1 -1 -0 -0 -0 -0 -0 -0 -0 0 0 -0 -0 -0 -0 -0 -0 -1 -1 -1 -0 -0 -0 -0 -0 -0 -0 -1 -1 -2 -3 -4 -4 -5 -5 -5 -4 -4 -4 -3 -2 -2 -1 -1 -1 -1
0 0 0 0 0 0 0 0 0 0 0 0 -0 -0 -0 -0 -1 -1 -1 -0 -0 -0 -0 -1 -1 -1 -0 -0 -0 -0 -0 -0 -0 -0 -0 -0 -1 -1 -1 -1 -1 -1 -1 -1 -1 -1 -1 -1 -0 -0 -1 -1 -1 -2 -2 -3 -4 -4 -5 -5 -4 -4 -4 -4 -3 -2 -2 -2 -1
0 0 0 0 0 0 0 0 0 0 0 0 0 -0 -0 -0 -0 -0 -0 -0 -0 -0 -0 -0 -0 -0 -0 -0 -0 -0 -1 -1 -1 -1 -1 -1 -1 -1 -1 -1 -2 -2 -2 -2 -2 -2 -2 -1 -1 -1 -1 -1 -1 -1 -1 -1 -2 -3 -3 -4 -4 -4 -4 -5 -4 -4 -3 -3 -2
Height
3036 3036 3035 3035 3034 3034 3033 3032 3031 3030 3029 3028 3027 3026 3025 3024 3022 3021 3019 3018 3016 3014 3013 3011 3009 3008 3006 3004 3002 3001 2999 2998 2996 2994 2993 2992 2991 2989 2988 2986 2985 2983 2982 2981 2980 2978 2976 2975 2973 2972 2971 2969 2967 2966 2964 2964 2963 2963 2963 2962 2961 2959 2959 2958 2957 2957 2956 2955 2954
3035 3035 3035 3034 3034 3033 3032 3032 3031 3030 3029 3028 3027 3026 3024 3023 3022 3021 3019 3018 3016 3015 3014 3012 3010 3008 3007 3005 3003 3001 2999 2998 2996 2995 2993 2992 2991 2989 2988 2987 2985 2984 2982 2981 2980 2979 2977 2976 2974 2973 2972 2971 2969 2967 2965 2965 2964 2964 2963 2962 2961 2960 2959 2959 2959 2959 2958 2957 2955
3035 3034 3034 3034 3033 3032 3032 3031 3030 3029 3028 3027 3026 3025 3024 3023 3022 3021 3019 3018 3016 3015 3014 3012 3011 3009 3007 3005 3004 3002 3000 2998 2997 2995 2994 2992 2991 2989 2988 2987 2986 2984 2983 2982 2981 2979 2978 2977 2975 2974 2973 2972 2970 2969 2967 2966 2966 2965 2964 2963 2962 2961 2960 2960 2959 2959 2960 2959 2957
3034 3034 3033 3033 3032 3032 3031 3030 3030 3029 3028 3027 3026 3025 3024 3023 3022 3020 3019 3018 3017 3015 3014 3013 3011 3009 3008 3006 3004 3002 3000 2999 2997 2995 2994 2992 2991 2990 2989 2987 2986 2985 2984 2982 2981 2980 2979 2977 2976 2975 2974 2973 2971 2970 2969 2968 2967 2967 2966 2965 2964 2963 2962 2961 2961 2962 2961 2960 2959
3033 3033 3032 3032 3032 3031 3030 3030 3029 3028 3027 3027 3025 3024 3024 3023 3021 3020 3019 3018 3017 3015 3014 3013 3012 3010 3009 3007 3005 3003 3001 2999 2998 2996 2994 2993 2991 2990 2989 2988 2986 2985 2984 2983 2982 2981 2980 2979 2977 2976 2974 2973 2972 2971 2970 2969 2969 2968 2967 2966 2966 2964 2964 2962 2961 2961 2960 2960 2960
3032 3032 3032 3031 3031 3030 3030 3029 3029 3028 3027 3026 3025 3024 3023 3022 3021 3020 3019 3018 3017 3015 3014 3013 3012 3011 3009 3008 3006 3004 3002 3000 2999 2997 2995 2994 2992 2991 2989 2988 2987 2986 2984 2983 2982 2981 2981 2979 2978 2977 2976 2974 2973 2972 2971 2970 2969 2969 2968 2967 2967 2966 2964 2964 2963 2962 2961 2961 2961
3032 3031 3031 3030 3030 3030 3029 3029 3028 3027 3026 3026 3024 3024 3023 3022 3021 3020 3019 3018 3017 3015 3014 3014 3013 3011 3010 3008 3006 3005 3003 3001 2999 2998 2996 2994 2993 2991 2990 2989 2987 2986 2985 2984 2983 2982 2981 2980 2979 2978 2977 2976 2974 2973 2972 2971 2970 2969 2969 2969 2968 2967 2966 2965 2964 2963 2963 2963 2962
3031 3030 3030 3030 3029 3029 3029 3028 3027 3027 3026 3025 3024 3023 3022 3021 3020 3019 3018 3017 3016 3015 3014 3014 3013 3012 3010 3009 3007 3005 3004 3002 3000 2999 2997 2995 2994 2992 2991 2989 2988 2987 2985 2984 2983 2982 2981 2980 2979 2979 2978 2976 2975 2974 2973 2972 2971 2970 2969 2969 2969 2968 2968 2967 2966 2965 2964 2964 2964
3030 3029 3029 3029 3029 3028 3028 3027 3027 3026 3025 3024 3024 3023 3022 3021 3020 3019 3018 3017 3016 3015 3014 3014 3013 3012 3011 3009 3008 3006 3004 3003 3001 3000 2998 2996 2995 2993 2992 2990 2989 2988 2986 2985 2984 2983 2981 2980 2980 2979 2978 2977 2976 2975 2974 2973 2972 2971 2970 2970 2969 2969 2968 2968 2967 2966 2965 2965 2965
3029 3029 3029 3028 3028 3028 3027 3027 3026 3025 3025 3024 3023 3022 3022 3021 3020 3019 3018 3017 3016 3015 3014 3014 3013 3012 3011 3009 3008 3007 3005 3004 3002 3001 2999 2997 2996 2994 2993 2991 2990 2989 2987 2986 2984 2983 2982 2981 2980 2979 2979 2978 2976 2975 2974 2974 2973 2972 2971 2970 2970 2969 2969 2968 2968 2968 2967 2966 2966
3028 3028 3028 3027 3027 3027 3026 3026 3025 3025 3024 3024 3023 3022 3021 3020 3019 3019 3018 3017 3016 3015 3014 3014 3013 3012 3011 3010 3009 3008 3006 3004 3003 3002 3000 2999 2997 2995 2994 2993 2991 2990 2988 2987 2986 2984 2983 2982 2981 2980 2979 2978 2977 2976 2975 2974 2973 2972 2972 2971 2971 2970 2970 2969 2969 2969 2968 2968 2967
3027 3027 3027 3027 3026 3026 3026 3025 3025 3024 3024 3023 3022 3022 3021 3020 3019 3018 3018 3017 3016 3015 3014 3013 3013 3012 3011 3010 3009 3008 3007 3005 3004 3002 3001 2999 2998 2996 2995 2994 2992 2991 2989 2988 2987 2986 2984 2983 2982 2981 2980 2979 2978 2977 2975 2974 2974 2973 2973 2972 2971 2971 2971 2970 2970 2969 2969 2969 2968
3026 3026 3026 3026 3026 3025 3025 3024 3024 3024 3023 3023 3022 3021 3020 3020 3019 3018 3017 3016 3015 3015 3014 3013 3012 3012 3011 3010 3009 3008 3007 3006 3004 3003 3002 3000 2999 2997 2996 2995 2993 2992 2991 2989 2988 2987 2985 2984 2983 2982 2981 2980 2979 2978 2976 2975 2974 2974 2973 2973 2972 2972 2971 2971 2971 2970 2970 2970 2969
3025 3025 3025 3025 3025 3024 3024 3024 3024 3023 3023 3022 3021 3021 3020 3019 3019 3018 3017 3016 3015 3014 3014 3013 3012 3011 3011 3010 3009 3009 3008 3006 3005 3004 3002 3001 2999 2998 2997 2996 2994 2993 2992 2990 2989 2988 2987 2985 2984 2983 2982 2981 2979 2978 2977 2976 2975 2974 2974 2973 2973 2972 2972 2972 2971 2971 2971 2971 2970
3024 3024 3024 3024 3024 3024 3024 3023 3023 3022 3022 3021 3021 3020 3020 3019 3019 3018 3017 3016 3015 3014 3013 3012 3011 3011 3010 3010 3009 3009 3008 3007 3005 3004 3003 3002 3000 2999 2998 2997 2995 2994 2993 2991 2990 2989 2988 2987 2985 2984 2983 2982 2981 2979 2978 2977 2976 2975 2974 2974 2973 2973 2972 2972 2972 2971 2971 2971 2971
3024 3024 3023 3023 3023 3023 3023 3023 3022 3022 3021 3021 3020 3020 3019 3019 3018 3018 3017 3016 3015 3014 3013 3012 3011 3010 3010 3009 3009 3009 3008 3007 3006 3005 3004 3002 3001 3000 2999 2998 2996 2995 2994 2992 2991 2990 2989 2988 2987 2985 2984 2983 2982 2981 2979 2978 2977 2976 2975 2974 2974 2973 2973 2973 2972 2972 2972 2971 2971
3023 3023 3023 3022 3022 3022 3022 3022 3021 3021 3021 3020 3020 3019 3019 3019 3018 3017 3017 3016 3015 3014 3013 3012 3011 3010 3009 3009 3009 3008 3008 3007 3006 3005 3004 3003 3002 3001 2999 2998 2997 2996 2994 2993 2992 2991 2990 2989 2988 2987 2985 2984 2983 2982 2981 2980 2979 2977 2976 2975 2974 2974 2973 2973 2973 2972 2972 2972 2972
3022 3022 3022 3021 3021 3021 3021 3021 3021 3020 3020 3020 3019 3019 3019 3018 3018 3017 3016 3015 3015 3014 3013 3012 3011 3010 3009 3009 3009 3008 3008 3007 3006 3005 3004 3004 3003 3001 3000 2999 2998 2997 2995 2994 2993 2992 2991 2990 2989 2988 2987 2985 2984 2984 2982 2981 2980 2979 2978 2977 2976 2975 2974 2974 2973 2973 2972 2972 2972
3020 3021 3021 3020 3020 3020 3020 3020 3020 3019 3019 3019 3019 3019 3018 3018 3017 3016 3016 3015 3014 3014 3013 3012 3011 3010 3009 3009 3008 3008 3007 3007 3006 3005 3005 3004 3003 3002 3001 2999 2999 2997 2996 2995 2994 2993 2992 2990 2989 2989 2988 2987 2986 2984 2984 2983 2982 2980 2979 2978 2977 2976 2975 2974 2974 2973 2973 2973 2972
3019 3019 3019 3019 3019 3019 3019 3019 3019 3019 3019 3018 3018 3018 3017 3017 3017 3016 3015 3014 3014 3013 3012 3011 3010 3010 3009 3009 3008 3008 3007 3007 3006 3005 3005 3004 3003 3002 3001 3000 2999 2998 2997 2996 2994 2994 2992 2991 2990 2989 2989 2988 2987 2986 2985 2984 2983 2982 2981 2980 2979 2978 2977 2976 2975 2974 2974 2973 2973
3019 3019 3019 3019 3019 3019 3018 3018 3018 3018 3018 3018 3017 3017 3017 3016 3016 3015 3014 3014 3013 3013 3012 3011 3010 3009 3009 3008 3008 3007 3007 3007 3006 3005 3005 3004 3003 3002 3001 3000 2999 2998 2997 2996 2995 2994 2993 2992 2991 2990 2989 2989 2988 2987 2986 2985 2984 2983 2982 2981 2980 2979 2978 2977 2976 2975 2974 2974 2973
3017 3018 3018 3018 3018 3018 3018 3017 3017 3017 3017 3017 3016 3016 3016 3015 3015 3014 3014 3013 3013 3012 3011 3010 3009 3009 3008 3008 3007 3007 3007 3006 3006 3005 3004 3004 3003 3002 3002 3001 3000 2999 2998 2997 2996 2995 2994 2993 2992 2991 2990 2989 2988 2987 2986 2985 2984 2984 2983 2982 2981 2980 2979 2978 2977 2976 2976 2975 2974
3016 3016 3016 3016 3017 3017 3017 3016 3016 3016 3016 3016 3016 3015 3015 3015 3014 3014 3013 3013 3012 3011 3010 3010 3009 3009 3008 3007 3007 3007 3006 3006 3005 3005 3004 3004 3003 3002 3002 3001 3000 2999 2998 2997 2997 2996 2995 2994 2993 2992 2991 2990 2989 2988 2987 2986 2985 2984 2984 2983 2982 2981 2980 2979 2979 2978 2977 2976 2975
3015 3015 3015 3015 3015 3015 3015 3015 3015 3015 3015 3015 3015 3014 3014 3014 3014 3013 3013 3012 3011 3011 3010 3009 3009 3008 3008 3007 3006 3006 3006 3005 3005 3004 3004 3004 3003 3002 3002 3001 3000 2999 2999 2998 2997 2996 2995 2994 2994 2993 2992 2991 2990 2989 2988 2987 2986 2985 2984 2984 2983 2982 2981 2980 2979 2979 2978 2977 2976
3014 3014 3014 3014 3014 3014 3014 3014 3014 3014 3014 3014 3014 3014 3014 3013 3013 3012 3012 3011 3011 3010 3010 3009 3009 3008 3007 3007 3006 3005 3005 3005 3004 3004 3004 3003 3003 3002 3002 3001 3000 2999 2999 2998 2998 2997 2996 2995 2994 2993 2992 2991 2990 2989 2989 2988 2987 2986 2985 2984 2983 2983 2982 2981 2980 2979 2979 2978 2977
3013 3013 3013 3013 3013 3013 3013 3013 3013 3013 3013 3013 3013 3013 3013 3012 3012 3012 3011 3011 3010 3010 3009 3009 3008 3008 3007 3006 3006 3005 3005 3004 3004 3003 3003 3003 3002 3002 3001 3001 3000 2999 2999 2998 2998 2997 2996 2995 2994 2994 2993 2992 2991 2990 2989 2989 2988 2987 2986 2985 2984 2983 2982 2981 2981 2980 2979 2978 2978
3011 3011 3012 3012 3012 3012 3012 3012 3012 3012 3012 3012 3012 3012 3012 3011 3011 3011 3010 3010 3009 3009 3009 3008 3008 3007 3007 3006 3005 3005 3004 3004 3003 3003 3003 3002 3002 3001 3001 3000 3000 2999 2999 2998 2997 2997 2996 2995 2994 2994 2993 2992 2991 2991 2990 2989 2988 2988 2987 2986 2985 2984 2983 2982 2981 2981 2980 2979 2978
3010 3010 3010 3011 3011 3011 3011 3011 3011 3011 3011 3011 3011 3011 3011 3010 3010 3010 3009 3009 3009 3009 3008 3008 3007 3007 3006 3006 3005 3004 3004 3004 3003 3003 3002 3002 3001 3001 3000 3000 3000 2999 2999 2998 2997 2997 2996 2995 2994 2994 2993 2992 2992 2991 2990 2989 2989 2988 2987 2987 2986 2985 2984 2983 2982 2981 2980 2980 2979
3009 3009 3009 3009 3009 3010 3010 3010 3010 3010 3010 3010 3010 3010 3010 3009 3009 3009 3009 3008 3008 3008 3007 3007 3006 3006 3005 3005 3004 3004 3004 3003 3003 3002 3002 3001 3001 3000 3000 2999 2999 2999 2998 2998 2997 2996 2996 2995 2994 2994 2993 2992 2992 2991 2990 2989 2989 2988 2988 2987 2986 2986 2985 2984 2983 2982 2981 2980 2980
3008 3008 3008 3008 3009 3009 3009 3009 3009 3009 3009 3009 3009 3009 3009 3009 3008 3008 3008 3008 3007 3007 3006 3006 3006 3005 3005 3004 3004 3004 3003 3003 3002 3002 3001 3001 3000 3000 2999 2999 2999 2998 2998 2997 2997 2996 2996 2995 2994 2994 2993 2992 2992 2991 2990 2989 2989 2988 2988 2987 2987 2986 2985 2985 2984 2983 2982 2981 2980
3007 3007 3007 3007 3007 3008 3008 3008 3008 3008 3008 3008 3008 3008 3008 3007 3007 3007 3007 3007 3006 3006 3006 3005 3005 3004 3004 3004 3004 3003 3003 3002 3002 3001 3001 3000 3000 2999 2999 2998 2998 2997 2997 2997 2996 2996 2995 2995 2994 2994 2993 2992 2992 2991 2990 2989 2989 2988 2988 2987 2987 2986 2985 2985 2984 2984 2983 2982 2981
3006 3006 3006 3006 3006 3006 3006 3006 3007 3007 3006 3006 3006 3006 3006 3006 3006 3006 3006 3005 3005 3005 3005 3004 3004 3004 3004 3003 3003 3002 3002 3002 3001 3001 3000 3000 2999 2999 2999 2998 2997 2997 2996 2996 2996 2995 2995 2994 2994 2993 2993 2992 2992 2991 2990 2989 2989 2988 2988 2987 2986 2986 2985 2985 2984 2984 2983 2983 2982
3004 3005 3005 3005 3005 3005 3005 3005 3005 3005 3005 3005 3005 3005 3005 3005 3005 3005 3004 3004 3004 3004 3004 3004 3003 3003 3003 3002 3002 3001 3001 3001 3000 3000 2999 2999 2999 2998 2998 2998 2997 2997 2996 2995 2995 2994 2994 2994 2993 2993 2992 2992 2991 2991 2990 2989 2989 2988 2988 2987 2986 2986 2985 2984 2984 2984 2983 2983 2982
3004 3004 3004 3004 3004 3004 3004 3004 3004 3004 3004 3004 3004 3004 3004 3004 3004 3004 3003 3003 3003 3003 3003 3002 3002 3002 3002 3001 3001 3001 3000 3000 3000 2999 2999 2999 2998 2998 2997 2997 2996 2996 2996 2995 2994 2994 2994 2993 2993 2992 2992 2991 2991 2990 2990 2989 2989 2988 2987 2987 2986 2985 2985 2984 2984 2983 2983 2982 2982
3003 3003 3003 3003 3003 3003 3003 3003 3003 3003 3003 3003 3003 3003 3003 3002 3002 3002 3002 3002 3002 3002 3001 3001 3001 3001 3000 3000 3000 3000 2999 2999 2999 2998 2998 2998 2997 2997 2996 2996 2996 2995 2995 2995 2994 2994 2993 2992 2992 2991 2991 2990 2990 2989 2989 2989 2988 2988 2987 2987 2986 2985 2985 2984 2984 2983 2983 2982 2981
3001 3002 3002 3002 3002 3002 3002 3002 3002 3002 3002 3002 3002 3001 3001 3001 3001 3001 3001 3001 3000 3000 3000 3000 3000 3000 2999 2999 2999 2999 2998 2998 2998 2997 2997 2997 2996 2996 2996 2995 2995 2995 2994 2994 2994 2993 2993 2992 2991 2991 2990 2990 2989 2989 2988 2988 2988 2987 2987 2986 2986 2985 2985 2984 2984 2983 2982 2982 2981
3000 3000 3000 3001 3001 3001 3001 3001 3001 3001 3001 3000 3000 3000 3000 3000 3000 2999 2999 2999 2999 2999 2999 2999 2999 2999 2998 2998 2998 2998 2997 2997 2997 2996 2996 2996 2995 2995 2995 2994 2994 2994 2994 2993 2993 2993 2992 2992 2991 2990 2990 2989 2989 2988 2988 2987 2987 2986 2986 2985 2985 2985 2984 2984 2983 2983 2982 2981 2981
2999 2999 2999 2999 2999 2999 3000 3000 3000 2999 2999 2999 2999 2999 2999 2999 2999 2998 2998 2998 2998 2998 2998 2998 2997 2997 2997 2997 2997 2996 2996 2996 2996 2995 2995 2995 2994 2994 2994 2994 2993 2993 2993 2992 2992 2992 2991 2991 2990 2990 2989 2989 2988 2988 2987 2986 2986 2985 2985 2984 2984 2984 2984 2983 2983 2982 2982 2981 2980
2998 2998 2998 2998 2998 2998 2999 2999 2999 2999 2998 2998 2998 2998 2998 2998 2997 2997 2997 2997 2997 2997 2996 2996 2996 2996 2996 2996 2995 2995 2995 2995 2995 2994 2994 2994 2994 2993 2993 2993 2992 2992 2992 2991 2991 2991 2990 2990 2990 2989 2989 2988 2988 2987 2986 2986 2985 2985 2984 2984 2983 2983 2982 2982 2982 2981 2981 2981 2980
2996 2996 2997 2997 2997 2997 2997 2997 2997 2997 2997 2997 2997 2997 2996 2996 2996 2996 2996 2996 2996 2995 2995 2995 2995 2995 2995 2994 2994 2994 2994 2994 2994 2993 2993 2993 2992 2992 2992 2991 2991 2991 2990 2990 2990 2990 2989 2989 2989 2988 2988 2988 2987 2986 2986 2985 2985 2984 2984 2983 2982 2982 2981 2981 2980 2980 2980 2979 2979
2995 2995 2995 2995 2995 2996 2996 2996 2996 2996 2996 2996 2995 2995 2995 2995 2995 2995 2995 2995 2994 2994 2994 2994 2994 2994 2994 2993 2993 2993 2993 2993 2992 2992 2992 2992 2991 2991 2991 2990 2990 2990 2989 2989 2989 2989 2988 2988 2988 2987 2987 2987 2986 2986 2985 2985 2984 2984 2983 2982 2982 2981 2980 2980 2979 2979 2979 2978 2978